This is the latest recevied weather packets stored in our database for station/object KO4LCK. If no packets are shown the sender has not sent any weather packets the latest 10 day(s).
| Time | Temp. | Humidity | Pressure | Rain* | Wind** | Luminosity | Snow |
|---|---|---|---|---|---|---|---|
| 1777554421 | 15.56° C | 84% | 1013.9 hPa | 0 mm | - | 306 W/m² | - |
| 1777554118 | 15.56° C | 87% | 1013.5 hPa | 0 mm | - | 302 W/m² | - |
| 1777553815 | 15.56° C | 88% | 1013.6 hPa | 0 mm | - | 266 W/m² | - |
| 1777553511 | 15.56° C | 89% | 1013.5 hPa | 0 mm | - | 257 W/m² | - |
| 1777553207 | 15° C | 91% | 1013.6 hPa | 0 mm | - | 304 W/m² | - |
| 1777552903 | 15° C | 93% | 1013.5 hPa | 0 mm | - | 330 W/m² | - |
| 1777552598 | 15° C | 95% | 1013.5 hPa | 0 mm | - | 247 W/m² | - |
| 1777552295 | 14.44° C | 96% | 1013.5 hPa | 0 mm | - | 228 W/m² | - |
| 1777551991 | 14.44° C | 96% | 1013.4 hPa | 0 mm | - | 97 W/m² | - |
| 1777551689 | 15° C | 96% | 1013.4 hPa | 0 mm | - | 74 W/m² | - |
| 1777551386 | 14.44° C | 96% | 1013.3 hPa | 0 mm | - | 63 W/m² | - |
| 1777551083 | 14.44° C | 96% | 1013.4 hPa | 0 mm | - | 71 W/m² | - |
| 1777550780 | 14.44° C | 96% | 1012.8 hPa | 0 mm | - | 68 W/m² | - |
| 1777550476 | 14.44° C | 96% | 1012.5 hPa | 0 mm | - | 62 W/m² | - |
| 1777550172 | 14.44° C | 96% | 1012.4 hPa | 0 mm | - | 64 W/m² | - |
| 1777549869 | 14.44° C | 96% | 1012.5 hPa | 0 mm | - | 48 W/m² | - |
| 1777549565 | 14.44° C | 96% | 1012.2 hPa | 0 mm | - | 49 W/m² | - |
| 1777549261 | 14.44° C | 96% | 1012.4 hPa | 0 mm | - | 56 W/m² | - |
| 1777548957 | 14.44° C | 96% | 1012.2 hPa | 0 mm | - | 49 W/m² | - |
| 1777548654 | 13.89° C | 96% | 1012.2 hPa | 0 mm | - | 37 W/m² | - |
| 1777548351 | 13.89° C | 96% | 1012.2 hPa | 0 mm | - | 27 W/m² | - |
| 1777548049 | 13.89° C | 96% | 1012.3 hPa | 0 mm | - | 19 W/m² | - |
| 1777547744 | 13.89° C | 96% | 1012.3 hPa | 0 mm | - | 16 W/m² | - |
| 1777547440 | 14.44° C | 96% | 1012 hPa | 0 mm | - | 12 W/m² | - |
| 1777547138 | 14.44° C | 96% | 1012.1 hPa | 0 mm | - | 8 W/m² | - |
* Rain latest hour (hover to see other rain measurements)
** Current wind speed in m/s (hover to see current wind gust speed)